Weather in Caloocan

Philippines     14°39′04″N   120°58′20″E
temp.,
°C
wind,
m/s
gust,
m/s
humid.,
%
clouds,
%
prec.,
mm/h
press.,
hPa
HPBL,
m
2 december, thu
thu223:00+26e2668100 0.0 1011547
02:00+25n237291 0.0 1010188
05:00+24n2376100 0.0 1010101
08:00+26nne356893 0.0 1012482
11:00+29ene4551100 0.0 10111475
14:00+30ene4449100 0.0 10091500
17:00+27ene456242 0.0 1010647
20:00+25ene4106765 0.0 1012755
3 december, fri
fri323:00+25e386997 0.0 1012581
02:00+23ene12749 0.0 1011159
05:00+22ne127875 0.0 1012118
08:00+25nne246740 0.0 1014593
11:00+29e234855 0.0 10131376
14:00+29ene554778 0.0 10111561
17:00+26ene58604 0.0 1011902
20:00+25ene496322 0.0 1014757
4 december, sat
sat423:00+24ene266720 0.0 1014485
02:00+23ne137198 0.0 1013187
05:00+22n237776 0.0 1013122
08:00+25ne266581 0.0 1014711
11:00+28ene575197 0.0 10131378
14:00+28ene6753100 0.0 10111360
17:00+25ene51062100 0.0 10111123
20:00+25ene41066100 0.0 10141157
5 december, sun
sun523:00+24ne2670100 0.0 1014601
02:00+24ne4868100 0.0 10121128
05:00+22n3575100 0.0 1012348
08:00+24nne3668100 0.0 1014592
11:00+28ene4751100 0.0 10131500
14:00+28ene5649100 0.0 10101575
17:00+26ene3559100 0.0 1010746
20:00+23ene236971 0.0 1012272
6 december, mon
mon623:00+22ene11755 0.0 1012122
02:00+22n228054 0.0 1010100
05:00+21nne2284100 0.0 101095
08:00+24n2272100 0.0 1012309
11:00+29ene134842 0.0 10111382
14:00+31ene244520 0.0 10081604
17:00+27ene46597 0.0 1009632
20:00+25ene2469100 0.0 1011357